Showing default

OMNI-L1, 52157

Orbit data source: Space-Track

OMNI-L1, 52157 is a payload satellite owned by OmniSpace (US) in SSO that was launched on Fri, 01 Apr 2022 UTC via an FALCON 9 launch vehicle from the Air Force Eastern Test Range (AFETR). Payloads include a variety of satellites, spacecraft, and rockets equipped with specific instruments for various scientific and technological missions. These include communications satellites like Starlink; space stations such as the ISS; scientific satellites like the Hubble; Earth observation satellites from companies like Planet Labs, Umbra, and HawkEye 360; GPS; miniature CubeSats for education and research; and military/defense satellites.

Loading next visibility...
OMNI-L1 details
Identifier
52157, 2022-033A
Orbit
SSO
Last TLE update22 hours ago
Origin
Flag of USOmniSpace (US)
ManufacturerNANAV/THALES
MissionOperational Commercial Communications
Bus & MotorCUBESAT 12U, Unknown motor
Mass~20 kg wet, ~20 kg dry
Launch date (UTC)
2022-04-01 (3 years ago)
Launch vehicle
FALCON 9
Launch site
Air Force Eastern Test Range (AFETR)
Object type
Payload
Rocket body
Debris
Shape & HBRBox + 2 Pan, 1 m
Radar Cross Section0.126 m², Medium (>0.1 m² and < 1m²)

Expand to show TLE details & history

TLE from 22 hours ago
0 OMNI-L1
1 52157U 22033A   24355.77141975  .00004795  00000-0  65404-3 0  9997
2 52157  97.8839  74.4027 0004631 247.7953 112.2768 14.79104708147012
Epoch: 2024-12-20T18:30Z
Definitive object data (Epoch: 2024-12-20T18:30:50.666Z)
Latitude0.00004°
Longitude66.85944°
Altitude636.405 km
Speed7.539 km/s
True Right ascension04h 57m 36s
True Declination0° 00' 00"
Sunlit
Object was in full shadow at TLE epoch
Visualization TLE readout
Latitude-78.39074°
Longitude109.87102°
Altitude657.281 km
Speed7.529 km/s
Apparent Right ascension04h 43m 41s
Apparent Declination-62° 12' 22"
Sunlit
Object is in daylight
Visualization observer readout
Local Sidereal Time15:55:08
Azimuth194.25° SSW
Elevation-66.532°
Doppler factor1
Orbital elements
Apogee altitude632.438 km
Perigee altitude625.948 km
Semi-major axis7,007.33 km
Eccentricity0.0004631
Inclination97.8839°
RAAN74.4027°
Arg. of periapsis247.7953°
True anomaly112.3259°
Mean anomaly112.2768°
Eccentric anomaly112.30135°
Mean motion3.70011 °/min
BSTAR0.00065404
Orbital period97.29 mins
Loading maneuver chart data...

OMNI-L1 Visibility forecast

Observer location: undefined°, undefined

Span
Click to sort rows by Start time (UTC) header in descending order
Start Az.
Max El. time (UTC)
Max El. Az.
Max El.
End time (UTC)
End Az.
7 mins2024-12-21 17:49:37.122Z35.211° NE2024-12-21 17:52:37.122Z93.656° ESE31.631°2024-12-21 17:56:37.122Z165.862° S
4 mins2024-12-21 19:27:37.122Z314.515° NW2024-12-21 19:28:37.122Z297.119° NW17.884°2024-12-21 19:31:37.122Z251.516° W
6 mins2024-12-22 04:45:37.122Z118.469° SE2024-12-22 04:48:37.122Z56.831° ENE25.61°2024-12-22 04:51:37.122Z11.732° NNE
5 mins2024-12-22 06:22:37.122Z230.322° WSW2024-12-22 06:24:37.122Z268.787° W21.755°2024-12-22 06:27:37.122Z315.789° NNW
|